Time,TemperatureF,DewpointF,PressureIn,WindDirection,WindDirectionDegrees,WindSpeedMPH,WindSpeedGustMPH,Humidity,HourlyPrecipIn,Conditions,Clouds,dailyrainin,SolarRadiationWatts/m^2,SoftwareType,DateUTC
2013-03-16 00:02:00,64.0,47.0,-100.00,South,177,15.0,22.0,53,0.00,,,0.00,0.000000,,2013-03-16 05:02:00,
2013-03-16 00:12:00,64.0,47.0,-100.00,South,177,15.0,22.0,53,0.00,,,0.00,0.000000,,2013-03-16 05:12:00,
2013-03-16 00:22:00,64.0,47.0,-100.00,South,177,15.0,22.0,53,0.00,,,0.00,0.000000,,2013-03-16 05:22:00,
2013-03-16 00:32:00,64.0,47.0,-100.00,South,177,15.0,22.0,53,0.00,,,0.00,0.000000,,2013-03-16 05:32:00,
2013-03-16 01:02:00,62.0,47.0,-100.00,South,182,14.0,24.0,59,0.00,,,0.00,0.000000,,2013-03-16 06:02:00,
2013-03-16 01:12:00,62.0,47.0,-100.00,South,182,14.0,24.0,59,0.00,,,0.00,0.000000,,2013-03-16 06:12:00,
2013-03-16 01:22:00,62.0,47.0,-100.00,South,182,14.0,24.0,59,0.00,,,0.00,0.000000,,2013-03-16 06:22:00,
2013-03-16 01:32:00,62.0,47.0,-100.00,South,182,14.0,24.0,59,0.00,,,0.00,0.000000,,2013-03-16 06:32:00,
2013-03-16 02:02:00,60.0,48.0,-100.00,South,178,14.0,23.0,64,0.00,,,0.00,0.000000,,2013-03-16 07:02:00,
2013-03-16 02:12:00,60.0,48.0,-100.00,South,178,14.0,23.0,64,0.00,,,0.00,0.000000,,2013-03-16 07:12:00,
2013-03-16 02:22:00,60.0,48.0,-100.00,South,178,14.0,23.0,64,0.00,,,0.00,0.000000,,2013-03-16 07:22:00,
2013-03-16 02:32:00,60.0,48.0,-100.00,South,178,14.0,23.0,64,0.00,,,0.00,0.000000,,2013-03-16 07:32:00,
2013-03-16 03:02:00,59.0,50.0,-100.00,South,186,14.0,22.0,71,0.00,,,0.00,0.000000,,2013-03-16 08:02:00,
2013-03-16 03:12:00,59.0,50.0,-100.00,South,186,14.0,22.0,71,0.00,,,0.00,0.000000,,2013-03-16 08:12:00,
2013-03-16 03:23:00,59.0,50.0,-100.00,South,186,14.0,22.0,71,0.00,,,0.00,0.000000,,2013-03-16 08:23:00,
2013-03-16 03:32:00,59.0,50.0,-100.00,South,186,14.0,22.0,71,0.00,,,0.00,0.000000,,2013-03-16 08:32:00,
2013-03-16 04:02:00,58.0,51.0,-100.00,South,190,15.0,23.0,77,0.00,,,0.00,0.000000,,2013-03-16 09:02:00,
2013-03-16 04:12:00,58.0,51.0,-100.00,South,190,15.0,23.0,77,0.00,,,0.00,0.000000,,2013-03-16 09:12:00,
2013-03-16 04:22:00,58.0,51.0,-100.00,South,190,15.0,23.0,77,0.00,,,0.00,0.000000,,2013-03-16 09:22:00,
2013-03-16 04:33:00,58.0,51.0,-100.00,South,190,15.0,23.0,77,0.00,,,0.00,0.000000,,2013-03-16 09:33:00,
2013-03-16 05:03:00,57.0,51.0,-100.00,SSW,192,14.0,22.0,79,0.00,,,0.00,0.000000,,2013-03-16 10:03:00,
2013-03-16 05:12:00,57.0,51.0,-100.00,SSW,192,14.0,22.0,79,0.00,,,0.00,0.000000,,2013-03-16 10:12:00,
2013-03-16 05:23:00,57.0,51.0,-100.00,SSW,192,14.0,22.0,79,0.00,,,0.00,0.000000,,2013-03-16 10:23:00,
2013-03-16 05:32:00,57.0,51.0,-100.00,SSW,192,14.0,22.0,79,0.00,,,0.00,0.000000,,2013-03-16 10:32:00,
2013-03-16 06:03:00,57.0,53.0,-100.00,SSW,197,14.0,23.0,87,0.00,,,0.00,0.000000,,2013-03-16 11:03:00,
2013-03-16 06:12:00,57.0,53.0,-100.00,SSW,197,14.0,23.0,87,0.00,,,0.00,0.000000,,2013-03-16 11:12:00,
2013-03-16 06:22:00,57.0,53.0,-100.00,SSW,197,14.0,23.0,87,0.00,,,0.00,0.000000,,2013-03-16 11:22:00,
2013-03-16 06:32:00,57.0,53.0,-100.00,SSW,197,14.0,23.0,87,0.00,,,0.00,0.000000,,2013-03-16 11:32:00,
2013-03-16 07:02:00,56.0,53.0,-100.00,SSW,197,13.0,19.0,91,0.00,,,0.00,0.000000,,2013-03-16 12:02:00,
2013-03-16 07:12:00,56.0,53.0,-100.00,SSW,197,13.0,19.0,91,0.00,,,0.00,0.000000,,2013-03-16 12:12:00,
2013-03-16 07:22:00,56.0,53.0,-100.00,SSW,197,13.0,19.0,91,0.00,,,0.00,0.000000,,2013-03-16 12:22:00,
2013-03-16 07:32:00,56.0,53.0,-100.00,SSW,197,13.0,19.0,91,0.00,,,0.00,0.000000,,2013-03-16 12:32:00,
2013-03-16 08:02:00,56.0,54.0,-100.00,SSW,195,14.0,21.0,93,0.00,,,0.00,0.000000,,2013-03-16 13:02:00,
2013-03-16 08:12:00,56.0,54.0,-100.00,SSW,195,14.0,21.0,93,0.00,,,0.00,0.000000,,2013-03-16 13:12:00,
2013-03-16 08:22:00,56.0,54.0,-100.00,SSW,195,14.0,21.0,93,0.00,,,0.00,0.000000,,2013-03-16 13:22:00,
2013-03-16 08:32:00,56.0,54.0,-100.00,SSW,195,14.0,21.0,93,0.00,,,0.00,0.000000,,2013-03-16 13:32:00,
2013-03-16 09:02:00,57.0,54.0,-100.00,SSW,199,13.0,20.0,90,0.00,,,0.00,55.000000,,2013-03-16 14:02:00,
2013-03-16 09:12:00,57.0,54.0,-100.00,SSW,199,13.0,20.0,90,0.00,,,0.00,55.000000,,2013-03-16 14:12:00,
2013-03-16 09:22:00,57.0,54.0,-100.00,SSW,199,13.0,20.0,90,0.00,,,0.00,55.000000,,2013-03-16 14:22:00,
2013-03-16 09:32:00,57.0,54.0,-100.00,SSW,199,13.0,20.0,90,0.00,,,0.00,55.000000,,2013-03-16 14:32:00,
2013-03-16 10:03:00,61.0,55.0,-100.00,SSW,197,16.0,25.0,81,0.00,,,0.00,236.000000,,2013-03-16 15:03:00,
2013-03-16 10:12:00,61.0,55.0,-100.00,SSW,197,16.0,25.0,81,0.00,,,0.00,236.000000,,2013-03-16 15:12:00,
2013-03-16 10:22:00,61.0,55.0,-100.00,SSW,197,16.0,25.0,81,0.00,,,0.00,236.000000,,2013-03-16 15:22:00,
2013-03-16 10:33:00,61.0,55.0,-100.00,SSW,197,16.0,25.0,81,0.00,,,0.00,236.000000,,2013-03-16 15:33:00,
2013-03-16 11:03:00,65.0,54.0,-100.00,SSW,205,18.0,27.0,68,0.00,,,0.00,445.000000,,2013-03-16 16:03:00,
2013-03-16 11:12:00,65.0,54.0,-100.00,SSW,205,18.0,27.0,68,0.00,,,0.00,445.000000,,2013-03-16 16:12:00,
2013-03-16 11:22:00,65.0,54.0,-100.00,SSW,205,18.0,27.0,68,0.00,,,0.00,445.000000,,2013-03-16 16:22:00,
2013-03-16 11:33:00,65.0,54.0,-100.00,SSW,205,18.0,27.0,68,0.00,,,0.00,445.000000,,2013-03-16 16:33:00,
2013-03-16 11:53:00,69.0,54.0,-100.00,SSW,195,18.0,29.0,59,0.00,,,0.00,622.000000,,2013-03-16 16:53:00,
2013-03-16 12:03:00,69.0,54.0,-100.00,SSW,195,18.0,29.0,59,0.00,,,0.00,622.000000,,2013-03-16 17:03:00,
2013-03-16 12:13:00,69.0,54.0,-100.00,SSW,195,18.0,29.0,59,0.00,,,0.00,622.000000,,2013-03-16 17:13:00,
2013-03-16 12:23:00,69.0,54.0,-100.00,SSW,195,18.0,29.0,59,0.00,,,0.00,622.000000,,2013-03-16 17:23:00,
2013-03-16 12:32:00,69.0,54.0,-100.00,SSW,195,18.0,29.0,59,0.00,,,0.00,622.000000,,2013-03-16 17:32:00,
2013-03-16 13:02:00,74.0,54.0,-100.00,SSW,202,18.0,29.0,50,0.00,,,0.00,753.000000,,2013-03-16 18:02:00,
2013-03-16 13:13:00,74.0,54.0,-100.00,SSW,202,18.0,29.0,50,0.00,,,0.00,753.000000,,2013-03-16 18:13:00,
2013-03-16 13:23:00,74.0,54.0,-100.00,SSW,202,18.0,29.0,50,0.00,,,0.00,753.000000,,2013-03-16 18:23:00,
2013-03-16 13:33:00,74.0,54.0,-100.00,SSW,202,18.0,29.0,50,0.00,,,0.00,753.000000,,2013-03-16 18:33:00,
2013-03-16 14:02:00,78.0,54.0,-100.00,South,190,16.0,31.0,43,0.00,,,0.00,822.000000,,2013-03-16 19:02:00,
2013-03-16 14:12:00,78.0,54.0,-100.00,South,190,16.0,31.0,43,0.00,,,0.00,822.000000,,2013-03-16 19:12:00,
2013-03-16 14:22:00,78.0,54.0,-100.00,South,190,16.0,31.0,43,0.00,,,0.00,822.000000,,2013-03-16 19:22:00,
2013-03-16 14:32:00,78.0,54.0,-100.00,South,190,16.0,31.0,43,0.00,,,0.00,822.000000,,2013-03-16 19:32:00,
2013-03-16 15:02:00,79.0,51.0,-100.00,South,185,19.0,29.0,38,0.00,,,0.00,828.000000,,2013-03-16 20:02:00,
2013-03-16 15:12:00,79.0,51.0,-100.00,South,185,19.0,29.0,38,0.00,,,0.00,828.000000,,2013-03-16 20:12:00,
2013-03-16 15:22:00,79.0,51.0,-100.00,South,185,19.0,29.0,38,0.00,,,0.00,828.000000,,2013-03-16 20:22:00,
2013-03-16 15:32:00,79.0,51.0,-100.00,South,185,19.0,29.0,38,0.00,,,0.00,828.000000,,2013-03-16 20:32:00,
2013-03-16 16:02:00,80.0,48.0,-100.00,South,176,19.0,28.0,33,0.00,,,0.00,769.000000,,2013-03-16 21:02:00,
2013-03-16 16:12:00,80.0,48.0,-100.00,South,176,19.0,28.0,33,0.00,,,0.00,769.000000,,2013-03-16 21:12:00,
2013-03-16 16:22:00,80.0,48.0,-100.00,South,176,19.0,28.0,33,0.00,,,0.00,769.000000,,2013-03-16 21:22:00,
2013-03-16 16:32:00,80.0,48.0,-100.00,South,176,19.0,28.0,33,0.00,,,0.00,769.000000,,2013-03-16 21:32:00,
2013-03-16 17:03:00,81.0,49.0,-100.00,South,179,16.0,26.0,33,0.00,,,0.00,649.000000,,2013-03-16 22:03:00,
2013-03-16 17:12:00,81.0,49.0,-100.00,South,179,16.0,26.0,33,0.00,,,0.00,649.000000,,2013-03-16 22:12:00,
2013-03-16 17:22:00,81.0,49.0,-100.00,South,179,16.0,26.0,33,0.00,,,0.00,649.000000,,2013-03-16 22:22:00,
2013-03-16 17:33:00,81.0,49.0,-100.00,South,179,16.0,26.0,33,0.00,,,0.00,649.000000,,2013-03-16 22:33:00,
2013-03-16 18:02:00,81.0,47.0,-100.00,South,179,16.0,25.0,31,0.00,,,0.00,479.000000,,2013-03-16 23:02:00,
2013-03-16 18:13:00,81.0,47.0,-100.00,South,179,16.0,25.0,31,0.00,,,0.00,479.000000,,2013-03-16 23:13:00,
2013-03-16 18:22:00,81.0,47.0,-100.00,South,179,16.0,25.0,31,0.00,,,0.00,479.000000,,2013-03-16 23:22:00,
2013-03-16 18:33:00,81.0,47.0,-100.00,South,179,16.0,25.0,31,0.00,,,0.00,479.000000,,2013-03-16 23:33:00,
2013-03-16 19:02:00,80.0,48.0,-100.00,South,169,16.0,27.0,33,0.00,,,0.00,282.000000,,2013-03-17 00:02:00,
2013-03-16 19:12:00,80.0,48.0,-100.00,South,169,16.0,27.0,33,0.00,,,0.00,282.000000,,2013-03-17 00:12:00,
2013-03-16 19:22:00,80.0,48.0,-100.00,South,169,16.0,27.0,33,0.00,,,0.00,282.000000,,2013-03-17 00:22:00,
2013-03-16 19:32:00,80.0,48.0,-100.00,South,169,16.0,27.0,33,0.00,,,0.00,282.000000,,2013-03-17 00:32:00,
2013-03-16 20:02:00,77.0,48.0,-100.00,South,170,12.0,27.0,36,0.00,,,0.00,87.000000,,2013-03-17 01:02:00,
2013-03-16 20:12:00,77.0,48.0,-100.00,South,170,12.0,27.0,36,0.00,,,0.00,87.000000,,2013-03-17 01:12:00,
2013-03-16 20:22:00,77.0,48.0,-100.00,South,170,12.0,27.0,36,0.00,,,0.00,87.000000,,2013-03-17 01:22:00,
2013-03-16 20:32:00,77.0,48.0,-100.00,South,170,12.0,27.0,36,0.00,,,0.00,87.000000,,2013-03-17 01:32:00,
2013-03-16 21:03:00,74.0,51.0,-100.00,SSE,158,15.0,25.0,45,0.00,,,0.00,1.000000,,2013-03-17 02:03:00,
2013-03-16 21:13:00,74.0,51.0,-100.00,SSE,158,15.0,25.0,45,0.00,,,0.00,1.000000,,2013-03-17 02:13:00,
2013-03-16 21:22:00,74.0,51.0,-100.00,SSE,158,15.0,25.0,45,0.00,,,0.00,1.000000,,2013-03-17 02:22:00,
2013-03-16 21:33:00,74.0,51.0,-100.00,SSE,158,15.0,25.0,45,0.00,,,0.00,1.000000,,2013-03-17 02:33:00,
2013-03-16 22:02:00,69.0,58.0,-100.00,SSE,166,16.0,28.0,68,0.00,,,0.00,0.000000,,2013-03-17 03:02:00,
2013-03-16 22:12:00,69.0,58.0,-100.00,SSE,166,16.0,28.0,68,0.00,,,0.00,0.000000,,2013-03-17 03:12:00,
2013-03-16 22:22:00,69.0,58.0,-100.00,SSE,166,16.0,28.0,68,0.00,,,0.00,0.000000,,2013-03-17 03:22:00,
2013-03-16 22:33:00,69.0,58.0,-100.00,SSE,166,16.0,28.0,68,0.00,,,0.00,0.000000,,2013-03-17 03:33:00,
2013-03-16 23:03:00,66.0,59.0,-100.00,South,170,14.0,31.0,78,0.00,,,0.00,0.000000,,2013-03-17 04:03:00,
2013-03-16 23:13:00,66.0,59.0,-100.00,South,170,14.0,31.0,78,0.00,,,0.00,0.000000,,2013-03-17 04:13:00,
2013-03-16 23:23:00,66.0,59.0,-100.00,South,170,14.0,31.0,78,0.00,,,0.00,0.000000,,2013-03-17 04:23:00,
2013-03-16 23:32:00,66.0,59.0,-100.00,South,170,14.0,31.0,78,0.00,,,0.00,0.000000,,2013-03-17 04:32:00,